This is the latest recevied weather packets stored in our database for station/object W7OWO-1. If no packets are shown the sender has not sent any weather packets the latest 10 day(s).
| Time | Temp. | Humidity | Pressure | Rain* | Wind** | Luminosity | Snow |
|---|---|---|---|---|---|---|---|
| 1777533483 | 11.11° C | 87% | 1019.1 hPa | 0 mm | - | - | - |
| 1777526823 | 14.44° C | 74% | 1019.3 hPa | 0 mm | - | - | - |
| 1777522143 | 13.89° C | 80% | 1019.4 hPa | 0 mm | - | - | - |
| 1777521603 | 13.89° C | 79% | 1019.3 hPa | 0 mm | - | - | - |
| 1777520163 | 14.44° C | 76% | 1019.1 hPa | 0 mm | - | - | - |
| 1777518543 | 16.11° C | 71% | 1018.8 hPa | 0 mm | - | - | - |
| 1777517643 | 17.78° C | 65% | 1018.8 hPa | 0 mm | - | - | - |
| 1777514943 | 22.22° C | 49% | 1018.8 hPa | 0 mm | - | - | - |
| 1777509903 | 22.22° C | 49% | 1019.5 hPa | 0 mm | - | - | - |
| 1777507743 | 21.67° C | 47% | 1019.7 hPa | 0 mm | - | - | - |
| 1777507203 | 21.67° C | 49% | 1019.9 hPa | 0 mm | - | - | - |
| 1777505223 | 21.67° C | 46% | 1020.2 hPa | 0 mm | - | - | - |
| 1777502163 | 20.56° C | 55% | 1021 hPa | 0 mm | - | - | - |
| 1777501083 | 20.56° C | 55% | 1021.4 hPa | 0 mm | - | - | - |
| 1777500003 | 20° C | 54% | 1021.6 hPa | 0 mm | - | - | - |
| 1777497483 | 19.44° C | 54% | 1021.9 hPa | 0 mm | - | - | - |
| 1777496403 | 18.89° C | 57% | 1022 hPa | 0 mm | - | - | - |
| 1777493343 | 17.22° C | 63% | 1022.5 hPa | 0 mm | - | - | - |
| 1777492803 | 16.67° C | 62% | 1022.6 hPa | 0 mm | - | - | - |
| 1777489203 | 15.56° C | 65% | 1023.2 hPa | 0 mm | - | - | - |
| 1777487763 | 15.56° C | 64% | 1023.5 hPa | 0 mm | - | - | - |
| 1777486683 | 15.56° C | 65% | 1023.6 hPa | 0 mm | - | - | - |
| 1777486143 | 15° C | 66% | 1023.8 hPa | 0 mm | - | - | - |
| 1777483623 | 13.33° C | 71% | 1023.9 hPa | 0 mm | - | - | - |
| 1777483083 | 13.89° C | 67% | 1024 hPa | 0 mm | - | - | - |
* Rain latest hour (hover to see other rain measurements)
** Current wind speed in m/s (hover to see current wind gust speed)